Weather in Olaine

Latvia     56°47′14″N   23°56′31″E
temp.,
°C
wind,
m/s
gust,
m/s
humid.,
%
clouds,
%
prec.,
mm/h
press.,
hPa
HPBL,
m
29 may, sun
sun2900:00+6sw24955 0.0 100490
03:00+4sw249897 0.0 100486
06:00+4ssw249821 0.0 1005122
09:00+10ssw238171 0.0 1006650
12:00+14sse325486 0.2 10071530
15:00+13ssw2370100 0.6 1008725
18:00+12wnw018076 0.6 1010312
21:00+11ene118794 1.7 101115
30 may, mon
mon3000:00+9ene119574 0.1 101214
03:00+8se249791 0.1 1013114
06:00+8se259693 0.0 1014162
09:00+12ese2583100 0.0 1014470
12:00+15se3566100 0.4 10131221
15:00+16e3559100 0.8 10121334
18:00+11sse2698100 4.8 1011373
21:00+10ne3996100 11.3 1010512
31 may, tue
tue3100:00+10nne51197100 6.4 1008769
03:00+10nne2599100 8.1 1006374
06:00+10w2399100 0.5 1006237
09:00+10wsw4897100 1.3 1008584
12:00+10ssw4896100 0.3 1009554
15:00+10sw51197100 1.3 1011764
18:00+9wsw51394100 1.4 1013930
21:00+10sw41191100 1.4 1014658
1 june, wed
wed100:00+9ssw4119298 0.0 1015417
03:00+6ssw39974 0.0 1016207
06:00+6s38945 0.0 1016198
09:00+12s4766100 0.0 1016477
12:00+17s4560100 0.1 10151344
15:00+18s4554100 0.8 10141595
18:00+12se2697100 2.1 1014354
21:00+11nne13100100 8.4 1012135
2 june, thu
thu200:00+11nw3699100 8.6 1010326
03:00+10wnw3899100 12.5 1010388
06:00+10wsw369895 0.0 1011331
09:00+11sw2487100 0.0 1011353
12:00+15sw236598 0.1 1011919
15:00+11sw3590100 1.1 1012221
18:00+14sw478089 0.4 1013780
21:00+11wsw3990100 1.8 1013354